Current weather by "City, St" or "zip code"  
 

Current Conditions: Walla Walla Regional Airport, WA

NULL


43.0 F

Last Updated on Oct 31 2020, 1:53 am PDT
Humidity: 71%
Wind Speed: SE 8.1 mph
Barometer 30.26 in
Dewpoint: 34.0 F
Visibility: 10.00 mi
Precip: --
Heat Index: NA
Wind Chill: 38 F
Current conditions at:

Walla Walla Regional Airport, WA (KALW)

Lat: 46.09462 Lon: 118.2858

Local Radar Image active severe weather and emergency alerts image image weather storm and storm spotter reports image weather observation monitoring service image
Local
Radar
Active
Alerts
Storm Reports Obs
Monitoring

Sign-up For Email & Text Message Weather Alert Notification Services



Advertise Here

Observation History for Walla Walla Regional Airport, WA


Time Wind
(mph)
Vis
(mi)
Weather Precip (in) Temperature (F) Relative
Humidity
Wind
Chill
(F)
Heat
Index
(F)
Pressure
Air Dwpt altimeter
(in)
sea level
(mb)
Rmks
1:53 am PDT SE 8.1 10.00 NULL -- 43.0 34.0 71% 38 NA 30.26 1025.0
12:53 am PDT SE 10.4 10.00 Fair -- 44.0 35.1 71% 38 NA 30.24 1024.4
11:53 pm PDT S 9.2 10.00 Fair -- 45.0 35.1 68% 40 NA 30.23 1023.9
10:53 pm PDT S 11.5 10.00 Fair -- 45.0 35.1 68% 39 NA 30.20 1023.0
9:53 pm PDT S 12.7 10.00 Fair -- 46.0 34.0 63% 40 NA 30.17 1022.0
8:53 pm PDT S 11.5 10.00 Fair -- 47.0 35.1 63% 42 NA 30.15 1021.1
7:53 pm PDT S 11.5 10.00 Fair -- 49.0 35.1 59% 44 NA 30.12 1020.1
6:53 pm PDT S 9.2 10.00 Fair -- 51.0 35.1 54% 48 NA 30.07 1018.6
5:53 pm PDT SW 17.3 10.00 Fair -- 55.0 35.1 47% 51 NA 30.02 1016.8
4:53 pm PDT SW 18.4 10.00 Fair -- 58.0 36.0 44% 54 NA 30.00 1015.9
3:53 pm PDT SW 20.7 8.00 A Few Clouds and Breezy Trace 61.0 37.9 43% 58 NA 29.98 1015.3
2:53 pm PDT SW 31.1 G 41.4 10.00 Light Rain and Windy Trace 63.0 36.0 37% 60 NA 29.96 1014.6
1:53 pm PDT SW 27.6 G 34.5 6.00 Light Rain and Windy Trace 63.0 37.9 40% 60 NA 29.96 1014.5
12:53 pm PDT SW 20.7 G 29.9 10.00 A Few Clouds and Breezy -- 61.0 41.0 48% 58 NA 29.95 1014.2
11:53 am PDT S 19.6 G 29.9 10.00 Overcast Trace 57.0 42.1 58% 53 NA 29.96 1014.6
10:53 am PDT SW 23.0 G 31.1 10.00 Light Rain and Breezy Trace 57.0 39.9 53% 52 NA 29.95 1014.3
9:53 am PDT S 23.0 G 33.4 10.00 A Few Clouds and Breezy -- 57.0 36.0 45% 52 NA 29.93 1013.6
8:53 am PDT S 19.6 10.00 Fair -- 59.0 34.0 39% 55 NA 29.91 1012.8
7:53 am PDT S 13.8 10.00 Fair -- 53.0 30.0 41% 49 NA 29.87 1011.4
6:53 am PDT S 11.5 10.00 Fair -- 54.0 30.0 40% 51 NA 29.86 1011.3
5:53 am PDT S 13.8 10.00 Fair -- 55.0 30.0 38% 51 NA 29.86 1010.9
4:53 am PDT SE 10.4 10.00 Fair -- 51.0 30.0 45% 47 NA 29.86 1011.0
3:53 am PDT S 4.6 10.00 Fair -- 51.0 30.0 45% 50 NA 29.88 1011.5
2:53 am PDT SE 8.1 10.00 Fair -- 50.0 30.0 46% 47 NA 29.88 1011.7

Regional Weather Observation


Tri-Cities Airport, WA (KPSC)

NULL
33.0 F

Eastern Oregon Regional Airport at Pendleton, OR (KPDT)

Fair
40.0 F

Hanford, WA (KHMS)

Partly Cloudy
61.0 F

Meacham, OR (KMEH)

Fair
28.0 F

Hermiston, Hermiston Municipal Airport, OR (KHRI)

Fair
34.0 F

Lewiston, Lewiston-Nez Perce County Airport, ID (KLWS)

Fair
43.0 F